User: anonymous   Login
Location: Unspecified
(0.0000°N, 0.0000°E)
Time: 00:48:01
(UTC+00:00)
Language:

STARLINK-32604 - Orbit

View from above orbital plane
View from above orbital plane
View from above satellite
View from above satellite

Ground track
Ground track

The orbit is defined by the following mean orbital elements,

1 62070U          26145.58335647 +.00000000 +00000-0 +16699-2 0 00000
2 62070  53.1584 196.6812 0001176  78.5831 326.0748 15.34363865    07
Epoch (UTC): 25 May 2026 14:00:01
Eccentricity: 0.0001176
inclination: 53.1584°
perigee height: 462 km
apogee height: 464 km
right ascension of ascending node: 196.6812°
argument of perigee: 78.5831°
revolutions per day: 15.34363865
mean anomaly at epoch: 326.0748°

The dashed part of the orbit path shows where the satellite is in the earth's shadow,  

DLR